owner,sensor,date,latitude,longitude,vertical_datum,wind_speed,wind_to_direction,wind_speed_of_gust,qcFlag 
TCOON,ioos:station:TCOON:057:1,2017-03-01T00:00:00Z,28.4460,-96.3961,0.0,3.6,152.0,4.4,'11111222,11111222,11111222' 
TCOON,ioos:station:TCOON:057:1,2017-03-01T00:06:00Z,28.4460,-96.3961,0.0,3.5,150.0,4.1,'11111222,11111222,11111222' 
TCOON,ioos:station:TCOON:057:1,2017-03-01T00:12:00Z,28.4460,-96.3961,0.0,3.4,145.0,4.1,'11111222,11111222,11111222' 
TCOON,ioos:station:TCOON:057:1,2017-03-01T00:18:00Z,28.4460,-96.3961,0.0,3.4,145.0,4.1,'1111122,1111122,1111122' 
TCOON,ioos:station:TCOON:057:1,2017-03-01T00:24:00Z,28.4460,-96.3961,0.0,3.4,153.0,4.2,'11111222,11111222,11111222' 
TCOON,ioos:station:TCOON:057:1,2017-03-01T00:30:00Z,28.4460,-96.3961,0.0,3.8,149.0,4.3,'11111222,11111222,11111222' 
TCOON,ioos:station:TCOON:057:1,2017-03-01T00:36:00Z,28.4460,-96.3961,0.0,4.1,142.0,4.5,'11111222,11111222,11111222' 
TCOON,ioos:station:TCOON:057:1,2017-03-01T00:42:00Z,28.4460,-96.3961,0.0,4.0,141.0,4.5,'11111222,11111222,11111222' 
TCOON,ioos:station:TCOON:057:1,2017-03-01T00:54:00Z,28.4460,-96.3961,0.0,4.4,139.0,4.9,'11111222,11111222,11111222' 
TCOON,ioos:station:TCOON:057:1,2017-03-01T01:00:00Z,28.4460,-96.3961,0.0,4.8,139.0,5.2,'11111222,11111222,11111222' 
TCOON,ioos:station:TCOON:057:1,2017-03-01T01:06:00Z,28.4460,-96.3961,0.0,4.8,139.0,5.3,'11111222,11111222,11111222' 
TCOON,ioos:station:TCOON:057:1,2017-03-01T01:12:00Z,28.4460,-96.3961,0.0,4.9,144.0,5.6,'11111222,11111222,11111222' 
TCOON,ioos:station:TCOON:057:1,2017-03-01T01:18:00Z,28.4460,-96.3961,0.0,4.9,144.0,5.6,'1111122,1111122,1111122' 
TCOON,ioos:station:TCOON:057:1,2017-03-01T01:24:00Z,28.4460,-96.3961,0.0,5.2,146.0,5.9,'11111222,11111222,11111222' 
TCOON,ioos:station:TCOON:057:1,2017-03-01T01:30:00Z,28.4460,-96.3961,0.0,5.6,146.0,6.5,'11111222,11111222,11111222' 
TCOON,ioos:station:TCOON:057:1,2017-03-01T01:36:00Z,28.4460,-96.3961,0.0,6.0,145.0,6.7,'11111222,11111222,11111222' 
TCOON,ioos:station:TCOON:057:1,2017-03-01T01:42:00Z,28.4460,-96.3961,0.0,5.9,144.0,6.8,'11111222,11111222,11111222' 
TCOON,ioos:station:TCOON:057:1,2017-03-01T01:48:00Z,28.4460,-96.3961,0.0,5.8,145.0,7.2,'11111222,11111222,11111222' 
TCOON,ioos:station:TCOON:057:1,2017-03-01T01:54:00Z,28.4460,-96.3961,0.0,6.4,142.0,7.3,'11111222,11111222,11111222' 
TCOON,ioos:station:TCOON:057:1,2017-03-01T02:00:00Z,28.4460,-96.3961,0.0,7.0,145.0,8.0,'11111222,11111222,11111222' 
TCOON,ioos:station:TCOON:057:1,2017-03-01T02:06:00Z,28.4460,-96.3961,0.0,7.0,147.0,7.9,'11111222,11111222,11111222' 
TCOON,ioos:station:TCOON:057:1,2017-03-01T02:12:00Z,28.4460,-96.3961,0.0,6.5,147.0,8.0,'11111222,11111222,11111222' 
TCOON,ioos:station:TCOON:057:1,2017-03-01T02:18:00Z,28.4460,-96.3961,0.0,6.5,147.0,8.0,'1111122,1111122,1111122' 
TCOON,ioos:station:TCOON:057:1,2017-03-01T02:24:00Z,28.4460,-96.3961,0.0,6.5,150.0,8.2,'11111222,11111222,11111222' 
TCOON,ioos:station:TCOON:057:1,2017-03-01T02:30:00Z,28.4460,-96.3961,0.0,6.2,154.0,7.4,'11111222,11111222,11111222' 
TCOON,ioos:station:TCOON:057:1,2017-03-01T02:36:00Z,28.4460,-96.3961,0.0,6.4,158.0,7.7,'11111222,11111222,11111222' 
TCOON,ioos:station:TCOON:057:1,2017-03-01T02:42:00Z,28.4460,-96.3961,0.0,6.1,158.0,7.1,'11111222,11111222,11111222' 
TCOON,ioos:station:TCOON:057:1,2017-03-01T02:48:00Z,28.4460,-96.3961,0.0,5.8,163.0,6.8,'11111222,11111222,11111222' 
TCOON,ioos:station:TCOON:057:1,2017-03-01T02:54:00Z,28.4460,-96.3961,0.0,5.6,163.0,6.1,'11111222,11111222,11111222' 
TCOON,ioos:station:TCOON:057:1,2017-03-01T03:00:00Z,28.4460,-96.3961,0.0,5.6,163.0,6.2,'11111222,11111222,11111222' 
TCOON,ioos:station:TCOON:057:1,2017-03-01T03:06:00Z,28.4460,-96.3961,0.0,5.9,159.0,6.8,'11111222,11111222,11111222' 
TCOON,ioos:station:TCOON:057:1,2017-03-01T03:12:00Z,28.4460,-96.3961,0.0,6.2,157.0,7.2,'11111222,11111222,11111222' 
TCOON,ioos:station:TCOON:057:1,2017-03-01T03:18:00Z,28.4460,-96.3961,0.0,6.2,157.0,7.2,'1111122,1111122,1111122' 
TCOON,ioos:station:TCOON:057:1,2017-03-01T03:24:00Z,28.4460,-96.3961,0.0,6.0,160.0,7.1,'11111222,11111222,11111222' 
TCOON,ioos:station:TCOON:057:1,2017-03-01T03:30:00Z,28.4460,-96.3961,0.0,5.6,159.0,6.5,'11111222,11111222,11111222' 
TCOON,ioos:station:TCOON:057:1,2017-03-01T03:36:00Z,28.4460,-96.3961,0.0,5.7,161.0,6.6,'11111222,11111222,11111222' 
TCOON,ioos:station:TCOON:057:1,2017-03-01T03:42:00Z,28.4460,-96.3961,0.0,6.2,162.0,7.0,'11111222,11111222,11111222' 
TCOON,ioos:station:TCOON:057:1,2017-03-01T03:48:00Z,28.4460,-96.3961,0.0,5.5,164.0,6.7,'11111222,11111222,11111222' 
TCOON,ioos:station:TCOON:057:1,2017-03-01T03:54:00Z,28.4460,-96.3961,0.0,5.6,164.0,6.4,'11111222,11111222,11111222' 
TCOON,ioos:station:TCOON:057:1,2017-03-01T04:00:00Z,28.4460,-96.3961,0.0,5.7,164.0,6.9,'11111222,11111222,11111222' 
TCOON,ioos:station:TCOON:057:1,2017-03-01T04:06:00Z,28.4460,-96.3961,0.0,5.5,165.0,6.5,'11111222,11111222,11111222' 
TCOON,ioos:station:TCOON:057:1,2017-03-01T04:12:00Z,28.4460,-96.3961,0.0,5.5,169.0,6.4,'11111222,11111222,11111222' 
TCOON,ioos:station:TCOON:057:1,2017-03-01T04:18:00Z,28.4460,-96.3961,0.0,5.5,169.0,6.4,'1111122,1111122,1111122' 
TCOON,ioos:station:TCOON:057:1,2017-03-01T04:24:00Z,28.4460,-96.3961,0.0,5.5,169.0,6.0,'11111222,11111222,11111222' 
TCOON,ioos:station:TCOON:057:1,2017-03-01T04:30:00Z,28.4460,-96.3961,0.0,5.1,169.0,6.2,'11111222,11111222,11111222' 
TCOON,ioos:station:TCOON:057:1,2017-03-01T04:36:00Z,28.4460,-96.3961,0.0,5.6,172.0,6.2,'11111222,11111222,11111222' 
TCOON,ioos:station:TCOON:057:1,2017-03-01T04:42:00Z,28.4460,-96.3961,0.0,5.5,178.0,6.2,'11111222,11111222,11111222' 
TCOON,ioos:station:TCOON:057:1,2017-03-01T04:48:00Z,28.4460,-96.3961,0.0,5.2,177.0,6.2,'11111222,11111222,11111222' 
TCOON,ioos:station:TCOON:057:1,2017-03-01T04:54:00Z,28.4460,-96.3961,0.0,5.8,178.0,6.7,'11111222,11111222,11111222' 
TCOON,ioos:station:TCOON:057:1,2017-03-01T05:00:00Z,28.4460,-96.3961,0.0,6.7,173.0,7.8,'11111222,11111222,11111222' 
TCOON,ioos:station:TCOON:057:1,2017-03-01T05:06:00Z,28.4460,-96.3961,0.0,7.1,171.0,8.1,'11111222,11111222,11111222' 
TCOON,ioos:station:TCOON:057:1,2017-03-01T05:12:00Z,28.4460,-96.3961,0.0,6.7,172.0,7.9,'11111222,11111222,11111222' 
TCOON,ioos:station:TCOON:057:1,2017-03-01T05:18:00Z,28.4460,-96.3961,0.0,6.7,172.0,7.9,'1111122,1111122,1111122' 
TCOON,ioos:station:TCOON:057:1,2017-03-01T05:24:00Z,28.4460,-96.3961,0.0,7.4,169.0,8.3,'11111222,11111222,11111222' 
TCOON,ioos:station:TCOON:057:1,2017-03-01T05:30:00Z,28.4460,-96.3961,0.0,7.2,171.0,8.2,'11111222,11111222,11111222' 
TCOON,ioos:station:TCOON:057:1,2017-03-01T05:36:00Z,28.4460,-96.3961,0.0,7.4,171.0,8.9,'11111222,11111222,11111222' 
TCOON,ioos:station:TCOON:057:1,2017-03-01T05:42:00Z,28.4460,-96.3961,0.0,7.0,171.0,8.1,'11111222,11111222,11111222' 
TCOON,ioos:station:TCOON:057:1,2017-03-01T05:48:00Z,28.4460,-96.3961,0.0,6.7,173.0,8.2,'11111222,11111222,11111222' 
TCOON,ioos:station:TCOON:057:1,2017-03-01T05:54:00Z,28.4460,-96.3961,0.0,6.9,169.0,7.8,'11111222,11111222,11111222' 
TCOON,ioos:station:TCOON:057:1,2017-03-01T06:00:00Z,28.4460,-96.3961,0.0,6.9,169.0,8.3,'11111222,11111222,11111222' 
TCOON,ioos:station:TCOON:057:1,2017-03-01T06:06:00Z,28.4460,-96.3961,0.0,7.0,171.0,8.0,'11111222,11111222,11111222' 
TCOON,ioos:station:TCOON:057:1,2017-03-01T06:12:00Z,28.4460,-96.3961,0.0,6.9,170.0,8.0,'11111222,11111222,11111222' 
TCOON,ioos:station:TCOON:057:1,2017-03-01T06:18:00Z,28.4460,-96.3961,0.0,6.9,170.0,8.0,'1111122,1111122,1111122' 
TCOON,ioos:station:TCOON:057:1,2017-03-01T06:24:00Z,28.4460,-96.3961,0.0,6.4,174.0,7.3,'11111222,11111222,11111222' 
TCOON,ioos:station:TCOON:057:1,2017-03-01T06:30:00Z,28.4460,-96.3961,0.0,6.4,173.0,7.4,'11111222,11111222,11111222' 
TCOON,ioos:station:TCOON:057:1,2017-03-01T06:36:00Z,28.4460,-96.3961,0.0,7.0,173.0,8.6,'11111222,11111222,11111222' 
TCOON,ioos:station:TCOON:057:1,2017-03-01T06:42:00Z,28.4460,-96.3961,0.0,8.0,169.0,9.3,'11111222,11111222,11111222' 
TCOON,ioos:station:TCOON:057:1,2017-03-01T06:48:00Z,28.4460,-96.3961,0.0,8.0,168.0,9.1,'11111222,11111222,11111222' 
TCOON,ioos:station:TCOON:057:1,2017-03-01T06:54:00Z,28.4460,-96.3961,0.0,7.3,167.0,8.9,'11111222,11111222,11111222' 
TCOON,ioos:station:TCOON:057:1,2017-03-01T07:00:00Z,28.4460,-96.3961,0.0,6.6,166.0,7.9,'11111222,11111222,11111222' 
TCOON,ioos:station:TCOON:057:1,2017-03-01T07:06:00Z,28.4460,-96.3961,0.0,6.9,165.0,7.9,'11111222,11111222,11111222' 
TCOON,ioos:station:TCOON:057:1,2017-03-01T07:12:00Z,28.4460,-96.3961,0.0,6.4,165.0,8.2,'11111222,11111222,11111222' 
TCOON,ioos:station:TCOON:057:1,2017-03-01T07:18:00Z,28.4460,-96.3961,0.0,6.4,165.0,8.2,'1111122,1111122,1111122' 
TCOON,ioos:station:TCOON:057:1,2017-03-01T07:24:00Z,28.4460,-96.3961,0.0,6.1,165.0,6.8,'11111222,11111222,11111222' 
TCOON,ioos:station:TCOON:057:1,2017-03-01T07:30:00Z,28.4460,-96.3961,0.0,6.5,166.0,7.5,'11111222,11111222,11111222' 
TCOON,ioos:station:TCOON:057:1,2017-03-01T07:36:00Z,28.4460,-96.3961,0.0,6.8,169.0,7.9,'11111222,11111222,11111222' 
TCOON,ioos:station:TCOON:057:1,2017-03-01T07:42:00Z,28.4460,-96.3961,0.0,6.1,170.0,7.7,'11111222,11111222,11111222' 
TCOON,ioos:station:TCOON:057:1,2017-03-01T07:48:00Z,28.4460,-96.3961,0.0,6.6,172.0,8.0,'11111222,11111222,11111222' 
TCOON,ioos:station:TCOON:057:1,2017-03-01T07:54:00Z,28.4460,-96.3961,0.0,7.1,172.0,8.0,'11111222,11111222,11111222' 
TCOON,ioos:station:TCOON:057:1,2017-03-01T08:00:00Z,28.4460,-96.3961,0.0,7.4,170.0,8.4,'11111222,11111222,11111222' 
TCOON,ioos:station:TCOON:057:1,2017-03-01T08:06:00Z,28.4460,-96.3961,0.0,7.3,169.0,8.3,'11111222,11111222,11111222' 
TCOON,ioos:station:TCOON:057:1,2017-03-01T08:12:00Z,28.4460,-96.3961,0.0,7.0,171.0,8.4,'11111222,11111222,11111222' 
TCOON,ioos:station:TCOON:057:1,2017-03-01T08:18:00Z,28.4460,-96.3961,0.0,7.0,171.0,8.4,'1111122,1111122,1111122' 
TCOON,ioos:station:TCOON:057:1,2017-03-01T08:24:00Z,28.4460,-96.3961,0.0,6.9,175.0,8.0,'11111222,11111222,11111222' 
TCOON,ioos:station:TCOON:057:1,2017-03-01T08:30:00Z,28.4460,-96.3961,0.0,6.5,181.0,8.0,'11111222,11111222,11111222' 
TCOON,ioos:station:TCOON:057:1,2017-03-01T08:36:00Z,28.4460,-96.3961,0.0,6.2,183.0,7.3,'11111222,11111222,11111222' 
TCOON,ioos:station:TCOON:057:1,2017-03-01T08:42:00Z,28.4460,-96.3961,0.0,5.9,182.0,7.5,'11111222,11111222,11111222' 
TCOON,ioos:station:TCOON:057:1,2017-03-01T08:48:00Z,28.4460,-96.3961,0.0,6.4,183.0,7.7,'11111222,11111222,11111222' 
TCOON,ioos:station:TCOON:057:1,2017-03-01T08:54:00Z,28.4460,-96.3961,0.0,5.7,189.0,6.8,'11111222,11111222,11111222' 
TCOON,ioos:station:TCOON:057:1,2017-03-01T09:00:00Z,28.4460,-96.3961,0.0,5.7,186.0,6.7,'11111222,11111222,11111222' 
TCOON,ioos:station:TCOON:057:1,2017-03-01T09:06:00Z,28.4460,-96.3961,0.0,6.8,181.0,7.9,'11111222,11111222,11111222' 
TCOON,ioos:station:TCOON:057:1,2017-03-01T09:12:00Z,28.4460,-96.3961,0.0,6.6,182.0,7.9,'11111222,11111222,11111222' 
TCOON,ioos:station:TCOON:057:1,2017-03-01T09:18:00Z,28.4460,-96.3961,0.0,6.6,182.0,7.9,'1111122,1111122,1111122' 
TCOON,ioos:station:TCOON:057:1,2017-03-01T09:24:00Z,28.4460,-96.3961,0.0,6.5,184.0,7.9,'11111222,11111222,11111222' 
TCOON,ioos:station:TCOON:057:1,2017-03-01T09:30:00Z,28.4460,-96.3961,0.0,5.8,188.0,7.7,'11111222,11111222,11111222' 
TCOON,ioos:station:TCOON:057:1,2017-03-01T09:36:00Z,28.4460,-96.3961,0.0,5.9,189.0,8.0,'11111222,11111222,11111222' 
TCOON,ioos:station:TCOON:057:1,2017-03-01T09:42:00Z,28.4460,-96.3961,0.0,6.5,186.0,8.1,'11111222,11111222,11111222' 
TCOON,ioos:station:TCOON:057:1,2017-03-01T09:48:00Z,28.4460,-96.3961,0.0,6.3,189.0,7.7,'11111222,11111222,11111222' 
TCOON,ioos:station:TCOON:057:1,2017-03-01T09:54:00Z,28.4460,-96.3961,0.0,6.1,192.0,7.2,'11111222,11111222,11111222' 
TCOON,ioos:station:TCOON:057:1,2017-03-01T10:00:00Z,28.4460,-96.3961,0.0,5.5,189.0,6.7,'11111222,11111222,11111222' 
TCOON,ioos:station:TCOON:057:1,2017-03-01T10:06:00Z,28.4460,-96.3961,0.0,5.3,194.0,6.4,'11111222,11111222,11111222' 
TCOON,ioos:station:TCOON:057:1,2017-03-01T10:12:00Z,28.4460,-96.3961,0.0,5.5,197.0,6.6,'11111222,11111222,11111222' 
TCOON,ioos:station:TCOON:057:1,2017-03-01T10:18:00Z,28.4460,-96.3961,0.0,5.5,197.0,6.6,'1111122,1111122,1111122' 
TCOON,ioos:station:TCOON:057:1,2017-03-01T10:24:00Z,28.4460,-96.3961,0.0,5.7,197.0,7.3,'11111222,11111222,11111222' 
TCOON,ioos:station:TCOON:057:1,2017-03-01T10:30:00Z,28.4460,-96.3961,0.0,6.1,198.0,7.2,'11111222,11111222,11111222' 
TCOON,ioos:station:TCOON:057:1,2017-03-01T10:36:00Z,28.4460,-96.3961,0.0,5.5,200.0,6.6,'11111222,11111222,11111222' 
TCOON,ioos:station:TCOON:057:1,2017-03-01T10:42:00Z,28.4460,-96.3961,0.0,4.8,196.0,6.2,'11111222,11111222,11111222' 
TCOON,ioos:station:TCOON:057:1,2017-03-01T10:48:00Z,28.4460,-96.3961,0.0,5.5,196.0,7.2,'11111222,11111222,11111222' 
TCOON,ioos:station:TCOON:057:1,2017-03-01T10:54:00Z,28.4460,-96.3961,0.0,6.4,191.0,7.9,'11111222,11111222,11111222' 
TCOON,ioos:station:TCOON:057:1,2017-03-01T11:00:00Z,28.4460,-96.3961,0.0,6.7,190.0,7.8,'11111222,11111222,11111222' 
TCOON,ioos:station:TCOON:057:1,2017-03-01T11:06:00Z,28.4460,-96.3961,0.0,7.6,188.0,8.8,'11111222,11111222,11111222' 
TCOON,ioos:station:TCOON:057:1,2017-03-01T11:12:00Z,28.4460,-96.3961,0.0,7.3,188.0,9.3,'11111222,11111222,11111222' 
TCOON,ioos:station:TCOON:057:1,2017-03-01T11:18:00Z,28.4460,-96.3961,0.0,7.3,188.0,9.3,'1111122,1111122,1111122' 
TCOON,ioos:station:TCOON:057:1,2017-03-01T11:24:00Z,28.4460,-96.3961,0.0,8.1,185.0,9.6,'11111222,11111222,11111222' 
TCOON,ioos:station:TCOON:057:1,2017-03-01T11:30:00Z,28.4460,-96.3961,0.0,8.5,190.0,10.1,'11111222,11111222,11111222' 
TCOON,ioos:station:TCOON:057:1,2017-03-01T11:36:00Z,28.4460,-96.3961,0.0,8.2,191.0,10.3,'11111222,11111222,11111222' 
TCOON,ioos:station:TCOON:057:1,2017-03-01T11:42:00Z,28.4460,-96.3961,0.0,7.1,192.0,9.0,'11111222,11111222,11111222' 
TCOON,ioos:station:TCOON:057:1,2017-03-01T11:48:00Z,28.4460,-96.3961,0.0,7.8,189.0,9.3,'11111222,11111222,11111222' 
TCOON,ioos:station:TCOON:057:1,2017-03-01T11:54:00Z,28.4460,-96.3961,0.0,7.6,193.0,9.9,'11111222,11111222,11111222' 
TCOON,ioos:station:TCOON:057:1,2017-03-01T12:00:00Z,28.4460,-96.3961,0.0,6.9,197.0,9.4,'11111222,11111222,11111222' 
TCOON,ioos:station:TCOON:057:1,2017-03-01T12:06:00Z,28.4460,-96.3961,0.0,6.1,202.0,7.8,'11111222,11111222,11111222' 
TCOON,ioos:station:TCOON:057:1,2017-03-01T12:12:00Z,28.4460,-96.3961,0.0,5.8,201.0,8.3,'11111222,11111222,11111222' 
TCOON,ioos:station:TCOON:057:1,2017-03-01T12:18:00Z,28.4460,-96.3961,0.0,5.8,201.0,8.3,'1111122,1111122,1111122' 
TCOON,ioos:station:TCOON:057:1,2017-03-01T12:24:00Z,28.4460,-96.3961,0.0,5.9,196.0,7.7,'11111222,11111222,11111222' 
TCOON,ioos:station:TCOON:057:1,2017-03-01T12:30:00Z,28.4460,-96.3961,0.0,6.5,197.0,7.8,'11111222,11111222,11111222' 
TCOON,ioos:station:TCOON:057:1,2017-03-01T12:36:00Z,28.4460,-96.3961,0.0,5.4,194.0,7.2,'11111222,11111222,11111222' 
TCOON,ioos:station:TCOON:057:1,2017-03-01T12:42:00Z,28.4460,-96.3961,0.0,6.1,190.0,7.4,'11111222,11111222,11111222' 
TCOON,ioos:station:TCOON:057:1,2017-03-01T12:48:00Z,28.4460,-96.3961,0.0,6.7,188.0,8.2,'11111222,11111222,11111222' 
TCOON,ioos:station:TCOON:057:1,2017-03-01T12:54:00Z,28.4460,-96.3961,0.0,6.9,183.0,7.9,'11111222,11111222,11111222' 
TCOON,ioos:station:TCOON:057:1,2017-03-01T13:00:00Z,28.4460,-96.3961,0.0,6.6,185.0,8.4,'11111222,11111222,11111222' 
TCOON,ioos:station:TCOON:057:1,2017-03-01T13:06:00Z,28.4460,-96.3961,0.0,6.0,191.0,8.3,'11111222,11111222,11111222' 
TCOON,ioos:station:TCOON:057:1,2017-03-01T13:12:00Z,28.4460,-96.3961,0.0,7.5,294.0,9.8,'11111222,11111222,11111222' 
TCOON,ioos:station:TCOON:057:1,2017-03-01T13:18:00Z,28.4460,-96.3961,0.0,7.5,294.0,9.8,'1111122,1111122,1111122' 
TCOON,ioos:station:TCOON:057:1,2017-03-01T13:24:00Z,28.4460,-96.3961,0.0,5.1,276.0,11.6,'11111222,11111222,11111222' 
TCOON,ioos:station:TCOON:057:1,2017-03-01T13:30:00Z,28.4460,-96.3961,0.0,5.0,243.0,8.2,'11111222,11111222,11111222' 
TCOON,ioos:station:TCOON:057:1,2017-03-01T13:36:00Z,28.4460,-96.3961,0.0,5.7,280.0,6.9,'11111222,11111222,11111222' 
TCOON,ioos:station:TCOON:057:1,2017-03-01T13:42:00Z,28.4460,-96.3961,0.0,5.1,275.0,6.5,'11111222,11111222,11111222' 
TCOON,ioos:station:TCOON:057:1,2017-03-01T13:48:00Z,28.4460,-96.3961,0.0,3.5,275.0,5.2,'11111222,11111222,11111222' 
TCOON,ioos:station:TCOON:057:1,2017-03-01T13:54:00Z,28.4460,-96.3961,0.0,3.8,285.0,5.2,'11111222,11111222,11111222' 
TCOON,ioos:station:TCOON:057:1,2017-03-01T14:00:00Z,28.4460,-96.3961,0.0,2.9,270.0,4.2,'11111222,11111222,11111222' 
TCOON,ioos:station:TCOON:057:1,2017-03-01T14:06:00Z,28.4460,-96.3961,0.0,2.7,276.0,3.4,'11111222,11111222,11111222' 
TCOON,ioos:station:TCOON:057:1,2017-03-01T14:12:00Z,28.4460,-96.3961,0.0,2.2,268.0,3.4,'11111222,11111222,11111222' 
TCOON,ioos:station:TCOON:057:1,2017-03-01T14:18:00Z,28.4460,-96.3961,0.0,2.2,268.0,3.4,'1111122,1111122,1111122' 
TCOON,ioos:station:TCOON:057:1,2017-03-01T14:24:00Z,28.4460,-96.3961,0.0,2.1,252.0,2.6,'11111222,11111222,11111222' 
TCOON,ioos:station:TCOON:057:1,2017-03-01T14:30:00Z,28.4460,-96.3961,0.0,2.0,257.0,2.5,'11111222,11111222,11111222' 
TCOON,ioos:station:TCOON:057:1,2017-03-01T14:36:00Z,28.4460,-96.3961,0.0,2.1,252.0,2.9,'11111222,11111222,11111222' 
TCOON,ioos:station:TCOON:057:1,2017-03-01T14:42:00Z,28.4460,-96.3961,0.0,1.3,241.0,1.8,'11111222,11111222,11111222' 
TCOON,ioos:station:TCOON:057:1,2017-03-01T14:48:00Z,28.4460,-96.3961,0.0,1.0,231.0,1.6,'11111222,11111222,11111222' 
TCOON,ioos:station:TCOON:057:1,2017-03-01T14:54:00Z,28.4460,-96.3961,0.0,0.8,214.0,1.1,'11111222,11111222,11111222' 
TCOON,ioos:station:TCOON:057:1,2017-03-01T15:00:00Z,28.4460,-96.3961,0.0,0.7,235.0,1.1,'11111222,11111222,11111222' 
TCOON,ioos:station:TCOON:057:1,2017-03-01T15:06:00Z,28.4460,-96.3961,0.0,0.3,250.0,0.8,'11111222,11111222,11111222' 
TCOON,ioos:station:TCOON:057:1,2017-03-01T15:12:00Z,28.4460,-96.3961,0.0,0.6,247.0,0.9,'11111222,11111222,11111222' 
TCOON,ioos:station:TCOON:057:1,2017-03-01T15:18:00Z,28.4460,-96.3961,0.0,0.6,247.0,0.9,'1111122,1111122,1111122' 
TCOON,ioos:station:TCOON:057:1,2017-03-01T15:24:00Z,28.4460,-96.3961,0.0,1.0,183.0,2.3,'11111222,11111222,11111222' 
TCOON,ioos:station:TCOON:057:1,2017-03-01T15:30:00Z,28.4460,-96.3961,0.0,1.0,151.0,1.5,'11111222,11111222,11111222' 
TCOON,ioos:station:TCOON:057:1,2017-03-01T15:36:00Z,28.4460,-96.3961,0.0,1.8,150.0,2.3,'11111222,11111222,11111222' 
TCOON,ioos:station:TCOON:057:1,2017-03-01T15:42:00Z,28.4460,-96.3961,0.0,1.1,150.0,1.7,'11111222,11111222,11111222' 
TCOON,ioos:station:TCOON:057:1,2017-03-01T15:48:00Z,28.4460,-96.3961,0.0,0.3,41.0,2.6,'11111222,11111222,11111222' 
TCOON,ioos:station:TCOON:057:1,2017-03-01T15:54:00Z,28.4460,-96.3961,0.0,1.3,138.0,1.8,'11111222,11111222,11111222' 
TCOON,ioos:station:TCOON:057:1,2017-03-01T16:00:00Z,28.4460,-96.3961,0.0,2.5,132.0,2.8,'11111222,11111222,11111222' 
TCOON,ioos:station:TCOON:057:1,2017-03-01T16:06:00Z,28.4460,-96.3961,0.0,1.4,114.0,2.5,'11111222,11111222,11111222' 
TCOON,ioos:station:TCOON:057:1,2017-03-01T16:12:00Z,28.4460,-96.3961,0.0,2.8,136.0,3.6,'11111222,11111222,11111222' 
TCOON,ioos:station:TCOON:057:1,2017-03-01T16:18:00Z,28.4460,-96.3961,0.0,2.8,136.0,3.6,'1111122,1111122,1111122' 
TCOON,ioos:station:TCOON:057:1,2017-03-01T16:24:00Z,28.4460,-96.3961,0.0,3.4,146.0,3.7,'11111222,11111222,11111222' 
TCOON,ioos:station:TCOON:057:1,2017-03-01T16:30:00Z,28.4460,-96.3961,0.0,4.4,150.0,4.6,'11111222,11111222,11111222' 
TCOON,ioos:station:TCOON:057:1,2017-03-01T16:36:00Z,28.4460,-96.3961,0.0,4.5,146.0,4.9,'11111222,11111222,11111222' 
TCOON,ioos:station:TCOON:057:1,2017-03-01T16:42:00Z,28.4460,-96.3961,0.0,4.1,153.0,4.7,'11111222,11111222,11111222' 
TCOON,ioos:station:TCOON:057:1,2017-03-01T16:48:00Z,28.4460,-96.3961,0.0,3.1,161.0,4.0,'11111222,11111222,11111222' 
TCOON,ioos:station:TCOON:057:1,2017-03-01T16:54:00Z,28.4460,-96.3961,0.0,3.2,165.0,3.4,'11111222,11111222,11111222' 
TCOON,ioos:station:TCOON:057:1,2017-03-01T17:00:00Z,28.4460,-96.3961,0.0,3.3,161.0,3.7,'11111222,11111222,11111222' 
TCOON,ioos:station:TCOON:057:1,2017-03-01T17:06:00Z,28.4460,-96.3961,0.0,3.5,158.0,3.8,'11111222,11111222,11111222' 
TCOON,ioos:station:TCOON:057:1,2017-03-01T17:12:00Z,28.4460,-96.3961,0.0,2.7,142.0,4.0,'11111222,11111222,11111222' 
TCOON,ioos:station:TCOON:057:1,2017-03-01T17:18:00Z,28.4460,-96.3961,0.0,2.7,142.0,4.0,'1111122,1111122,1111122' 
TCOON,ioos:station:TCOON:057:1,2017-03-01T17:24:00Z,28.4460,-96.3961,0.0,1.8,114.0,2.3,'11111222,11111222,11111222' 
TCOON,ioos:station:TCOON:057:1,2017-03-01T17:30:00Z,28.4460,-96.3961,0.0,1.9,122.0,2.0,'11111222,11111222,11111222' 
TCOON,ioos:station:TCOON:057:1,2017-03-01T17:36:00Z,28.4460,-96.3961,0.0,0.6,134.0,2.0,'11111222,11111222,11111222' 
TCOON,ioos:station:TCOON:057:1,2017-03-01T17:42:00Z,28.4460,-96.3961,0.0,1.1,129.0,1.5,'11111222,11111222,11111222' 
TCOON,ioos:station:TCOON:057:1,2017-03-01T17:48:00Z,28.4460,-96.3961,0.0,0.0,115.0,0.9,'11111222,11111222,11111222' 
TCOON,ioos:station:TCOON:057:1,2017-03-01T17:54:00Z,28.4460,-96.3961,0.0,0.2,288.0,0.6,'11111222,11111222,11111222' 
TCOON,ioos:station:TCOON:057:1,2017-03-01T18:00:00Z,28.4460,-96.3961,0.0,0.5,212.0,0.6,'11111222,11111222,11111222' 
TCOON,ioos:station:TCOON:057:1,2017-03-01T18:06:00Z,28.4460,-96.3961,0.0,0.5,215.0,0.6,'11111222,11111222,11111222' 
TCOON,ioos:station:TCOON:057:1,2017-03-01T18:12:00Z,28.4460,-96.3961,0.0,0.2,217.0,0.6,'11111222,11111222,11111222' 
TCOON,ioos:station:TCOON:057:1,2017-03-01T18:18:00Z,28.4460,-96.3961,0.0,0.2,217.0,0.6,'1111122,1111122,1111122' 
TCOON,ioos:station:TCOON:057:1,2017-03-01T18:24:00Z,28.4460,-96.3961,0.0,0.0,179.0,0.0,'11111222,11111222,11111222' 
TCOON,ioos:station:TCOON:057:1,2017-03-01T18:30:00Z,28.4460,-96.3961,0.0,0.5,178.0,0.6,'11111222,11111222,11111222' 
TCOON,ioos:station:TCOON:057:1,2017-03-01T18:36:00Z,28.4460,-96.3961,0.0,1.0,173.0,1.1,'11111222,11111222,11111222' 
TCOON,ioos:station:TCOON:057:1,2017-03-01T18:42:00Z,28.4460,-96.3961,0.0,0.6,166.0,1.1,'11111222,11111222,11111222' 
TCOON,ioos:station:TCOON:057:1,2017-03-01T18:48:00Z,28.4460,-96.3961,0.0,1.3,165.0,1.5,'11111222,11111222,11111222' 
TCOON,ioos:station:TCOON:057:1,2017-03-01T18:54:00Z,28.4460,-96.3961,0.0,1.7,156.0,2.2,'11111222,11111222,11111222' 
TCOON,ioos:station:TCOON:057:1,2017-03-01T19:00:00Z,28.4460,-96.3961,0.0,2.7,143.0,2.8,'11111222,11111222,11111222' 
TCOON,ioos:station:TCOON:057:1,2017-03-01T19:06:00Z,28.4460,-96.3961,0.0,3.0,150.0,3.2,'11111222,11111222,11111222' 
TCOON,ioos:station:TCOON:057:1,2017-03-01T19:12:00Z,28.4460,-96.3961,0.0,2.5,163.0,3.1,'11111222,11111222,11111222' 
TCOON,ioos:station:TCOON:057:1,2017-03-01T19:18:00Z,28.4460,-96.3961,0.0,2.5,163.0,3.1,'1111122,1111122,1111122' 
TCOON,ioos:station:TCOON:057:1,2017-03-01T19:24:00Z,28.4460,-96.3961,0.0,1.8,141.0,2.0,'11111222,11111222,11111222' 
TCOON,ioos:station:TCOON:057:1,2017-03-01T19:30:00Z,28.4460,-96.3961,0.0,2.3,138.0,2.4,'11111222,11111222,11111222' 
TCOON,ioos:station:TCOON:057:1,2017-03-01T19:36:00Z,28.4460,-96.3961,0.0,1.7,139.0,2.4,'11111222,11111222,11111222' 
TCOON,ioos:station:TCOON:057:1,2017-03-01T19:42:00Z,28.4460,-96.3961,0.0,1.1,158.0,1.7,'11111222,11111222,11111222' 
TCOON,ioos:station:TCOON:057:1,2017-03-01T19:48:00Z,28.4460,-96.3961,0.0,0.5,168.0,1.2,'11111222,11111222,11111222' 
TCOON,ioos:station:TCOON:057:1,2017-03-01T19:54:00Z,28.4460,-96.3961,0.0,0.6,173.0,0.8,'11111222,11111222,11111222' 
TCOON,ioos:station:TCOON:057:1,2017-03-01T20:00:00Z,28.4460,-96.3961,0.0,0.3,39.0,0.6,'11111222,11111222,11111222' 
TCOON,ioos:station:TCOON:057:1,2017-03-01T20:06:00Z,28.4460,-96.3961,0.0,0.5,122.0,1.1,'11111222,11111222,11111222' 
TCOON,ioos:station:TCOON:057:1,2017-03-01T20:12:00Z,28.4460,-96.3961,0.0,0.7,225.0,1.6,'11111222,11111222,11111222' 
TCOON,ioos:station:TCOON:057:1,2017-03-01T20:18:00Z,28.4460,-96.3961,0.0,0.7,225.0,1.6,'1111122,1111122,1111122' 
TCOON,ioos:station:TCOON:057:1,2017-03-01T20:24:00Z,28.4460,-96.3961,0.0,1.3,304.0,1.7,'11111222,11111222,11111222' 